Regional Weather Roundup
Issued by NWS Little Rock, AR

Home | Current Version | Previous Version | Text Only | Print | Product List | Glossary On
Versions: 1 2 3 4 5 6 7 8 9 10 11 12 13 14 15 16 17 18 19 20 21 22 23 24 25 26 27
000
ASUS44 KLZK 302205
RWRLZK

WEATHER ROUNDUP FOR ARKANSAS
NATIONAL WEATHER SERVICE LITTLE ROCK AR
500 PM CDT SAT JUL 30 2016

NOTE: "FAIR" INDICATES FEW OR NO CLOUDS BELOW 12,000 FEET WITH NO
SIGNIFICANT WEATHER AND/OR OBSTRUCTIONS TO VISIBILITY.

ARZ001-003-010-029-302300-
NORTHWEST ARKANSAS

CITY           SKY/WX    TMP DP  RH WIND       PRES   REMARKS
FAYETTEVILLE   MOSUNNY   76  70  82 CALM      29.97F
FORT SMITH     CLOUDY    85  71  63 SE6       29.96F HX  90
HARRISON       LGT RAIN  70  69  97 S9        29.99F
BENTONVILLE    CLOUDY    77  66  69 S6        29.98R
ROGERS         CLOUDY    75  70  84 SE8       29.98S
SILOAM SPGS    CLOUDY    77  63  61 SE9       29.97S
HIGHFILL       CLOUDY    77  70  79 SE8       29.96F
SPRINGDALE     PTSUNNY   73  68  83 SE12      29.99S
$$

ARZ004-005-016-302300-
NORTH CENTRAL ARKANSAS

CITY           SKY/WX    TMP DP  RH WIND       PRES   REMARKS
BATESVILLE     CLOUDY    81  73  78 CALM      29.98R HX  85
FLIPPIN        CLOUDY    79  70  73 SE5       29.95F
MTN HOME       CLOUDY    81  73  76 CALM      29.98F HX  86
$$

ARZ040-041-302300-
WEST CENTRAL ARKANSAS

CITY           SKY/WX    TMP DP  RH WIND       PRES   REMARKS
MENA             N/A    N/A N/A N/A MISG        N/A
MOUNT IDA      LGT RAIN  75  74  96 VRB5      30.02R
$$

ARZ009-017-025-026-028-302300-
NORTHEAST ARKANSAS

CITY           SKY/WX    TMP DP  RH WIND       PRES   REMARKS
CORNING          N/A     77  73  88 S10       29.97R VSB 3/4
JONESBORO      MOSUNNY   88  71  57 W3        29.95F HX  94
NEWPORT        CLOUDY    86  78  76 NE3       29.96F HX  98
WALNUT RIDGE   CLOUDY    86  72  62 E3        29.94S HX  92
BLYTHEVILLE    MOSUNNY   89  74  60 CALM      29.96F HX  98
$$

ARZ022-023-033-042-044-302300-
CENTRAL ARKANSAS

CITY           SKY/WX    TMP DP  RH WIND       PRES   REMARKS
LITTLE ROCK    CLOUDY    90  73  57 SW8       29.95S HX  98
N LITTLE ROCK    N/A     86  76  70 CALM      29.93F HX  96
JACKSONVILLE   CLOUDY    83  71  66 N12G21    29.97R HX  87
SEARCY         TSTM      81  74  79 W9G17     30.02F HX  86
HOT SPRINGS    TSTM      73  70  90 NW3       30.02R
RUSSELLVILLE   CLOUDY    77  68  73 NE8       29.98R
$$

ARZ036-302300-
EAST ARKANSAS

CITY           SKY/WX    TMP DP  RH WIND       PRES   REMARKS
WEST MEMPHIS   SUNNY     88  73  61 CALM      29.95F HX  95
$$

ARZ050-053-066-070-073-302300-
SOUTHWEST ARKANSAS

CITY           SKY/WX    TMP DP  RH WIND       PRES   REMARKS
ARKADELPHIA    CLOUDY    73  69  87 N14G23    29.98R THUNDER
CAMDEN         SUNNY     93  75  55 CALM      29.95S HX 104
TEXARKANA      MOSUNNY   85  72  65 N10       29.97R HX  91
EL DORADO      SUNNY     93  75  55 CALM      29.96R HX 104
DE QUEEN       LGT RAIN  78  73  84 E12       30.01R
$$

ARZ056-057-069-302300-
SOUTHEAST ARKANSAS

CITY           SKY/WX    TMP DP  RH WIND       PRES   REMARKS
PINE BLUFF     SUNNY     91  73  55 MISG      29.96R HX  99
STUTTGART      MOSUNNY   90  73  58 CALM      29.97S HX  98
MONTICELLO     PTSUNNY   95  76  53 VRB6      29.96R HX 108

$$






USA.gov is the U.S. government's official web portal to all federal, state and local government web resources and services.